Location: Fort Wayne
(41.1310°N, 85.1290°W)
Time: 20:02:23
(UTC-04:00)

Meteor 2-10 Rocket - Visible Passes

Search period start: 30 June 2015 00:00
Search period end: 10 July 2015 00:00
Orbit: 734 x 885 km, 81.2° (Epoch: 30 June)

Date Brightness Start Highest point End Pass type
(mag) Time Alt. Az. Time Alt. Az. Time Alt. Az.
30 Jun 4.5 01:06:26 10° N 01:11:50 42° ENE 01:13:06 37° ESE visible
30 Jun 5.0 02:48:58 10° NW 02:53:44 27° W 02:54:14 26° W visible
01 Jul 4.9 00:42:29 10° N 00:47:30 31° ENE 00:49:01 27° E visible
01 Jul 4.5 02:24:23 10° NNW 02:29:38 36° W 02:30:09 36° WSW visible
02 Jul 5.3 00:18:40 10° NNE 00:23:06 23° ENE 00:24:56 20° E visible
02 Jul 4.1 01:59:57 10° NNW 02:05:31 50° W 02:06:05 49° WSW visible
02 Jul 5.7 23:55:05 10° NNE 23:58:38 17° ENE 00:00:53 14° E visible
03 Jul 3.7 01:35:37 10° NNW 01:41:23 70° W 01:42:01 64° SW visible
03 Jul 5.9 23:31:59 10° NE 23:34:07 12° ENE 23:36:36 10° E visible
04 Jul 3.6 01:11:23 10° N 01:17:12 86° E 01:17:59 68° SSE visible
04 Jul 5.9 02:56:07 10° WNW 02:58:36 12° W 02:59:08 12° W visible
05 Jul 3.9 00:47:13 10° N 00:52:58 63° ENE 00:53:58 54° ESE visible
05 Jul 5.5 02:30:44 10° NW 02:34:34 18° W 02:35:06 17° W visible
06 Jul 4.3 00:23:09 10° N 00:28:42 46° ENE 00:29:57 40° ESE visible
06 Jul 5.2 02:05:52 10° NW 02:10:31 25° W 02:11:06 24° W visible
06 Jul 4.7 23:59:10 10° N 00:04:22 34° ENE 00:05:57 29° ESE visible
07 Jul 4.7 01:41:16 10° NNW 01:46:27 34° W 01:47:06 33° WSW visible
07 Jul 5.1 23:35:20 10° NNE 23:39:59 25° ENE 23:41:58 21° E visible
08 Jul 4.3 01:16:47 10° NNW 01:22:21 46° W 01:23:07 44° WSW visible
08 Jul 5.5 23:11:40 10° NNE 23:15:32 19° ENE 23:18:00 15° E visible
09 Jul 3.9 00:52:26 10° NNW 00:58:13 64° W 00:59:09 56° SW visible
09 Jul 5.8 22:48:22 10° NE 22:51:01 14° ENE 22:53:58 10° E visible
